sat.trackr.live / text

‹ back to catalog

GSAT0226 (GALILEO 31)

NORAD 61183 · 2024-167B

PAYLOAD ACTIVE UNKNOWN

§ Identity

Operator
Country
ESA
Launch date
2024-09-17
Launch site
AFETR
Launch vehicle
Mass (kg)
RCS (m²)

Purposes: earth_obs, nav

External: N2YO · Heavens-Above · Gunter

§ Orbital elements

Epoch: 2026-05-22T06:45:14.261184Z

Period
844.70 min
Inclination
55.1903°
Eccentricity
0.0002380
Mean motion
1.70474365 rev/d
Perigee alt
23,215.1 km
Apogee alt
23,229.2 km
Semi-major
29,600.3 km
B*
0.0000e+0
RAAN
222.0316°
Arg perigee
215.3262°
Mean anomaly
145.6898°
Rev number
1,041

§ Raw data

GSAT0226 (GALILEO 31)1 61183U 24167B   26142.28141506 -.00000010  00000+0  00000+0 0  99912 61183  55.1903 222.0316 0002380 215.3262 145.6898  1.70474365 10418

JSON: /api/v1/satellites/61183 · /tle

For live sub-satellite position, see the globe view (requires WebGL).

§ Visibility from observer

Set your observer location to see the next 7 days of passes ≥ 10°. The values pass through the URL so the page stays shareable.

No JS? Fill the form by hand. The geolocation button needs JavaScript.